Regional Weather Roundup
Issued by NWS

Home | Current Version | Previous Version | Text Only | Print | Product List | Glossary On
Versions: 1 2 3 4 5 6 7 8 9 10 11 12 13 14 15 16 17 18 19 20 21 22 23 24 25 26 27 28 29 30 31 32 33 34 35 36 37 38 39 40 41 42 43 44 45 46 47 48 49 50
074
ASUS45 KPSR 101510
RWRAZ

ARIZONA HOURLY REGIONAL WEATHER ROUNDUP
NATIONAL WEATHER SERVICE PHOENIX AZ
800 AM MST SAT DEC 10 2016

NOTE: FAIR INDICATES FEW OR NO CLOUDS BELOW 12,000 FEET WITH NO
SIGNIFICANT WEATHER AND/OR OBSTRUCTIONS TO VISIBILITY.

AZZ001>003-036-101600-
NORTHWEST ARIZONA

CITY           SKY/WX    TMP DP  RH WIND       PRES   REMARKS
BULLHEAD CITY  PTCLDY    43  27  52 CALM      30.16S
KINGMAN        PTCLDY    42  34  73 SE6       30.14S
$$

AZZ004>008-015-016-018-101600-
NORTH CENTRAL ARIZONA

CITY           SKY/WX    TMP DP  RH WIND       PRES   REMARKS
GRAND CANYON   PTCLDY    21  19  92 CALM      30.21F
WILLIAMS       PTCLDY    32  28  86 SE8       30.21F WCI  25
PRESCOTT       PTCLDY    31  29  92 S3        30.20F
FLAGSTAFF      CLEAR     26  26 100 CALM      30.23S
PAYSON         CLEAR     37  30  75 CALM      30.25R
PAGE           CLOUDY    33  18  53 SW5       30.17S WCI  29
$$

AZZ009>014-017-101600-
NORTHEAST ARIZONA

CITY           SKY/WX    TMP DP  RH WIND       PRES   REMARKS
WINSLOW        MOCLDY    29  26  89 E8        30.20S WCI  21
SAINT JOHNS    PTCLDY    23  19  85 W3        30.21S
WINDOW ROCK    CLEAR     21  17  84 CALM      30.23S
SHOW LOW       PTCLDY    39  19  45 S15       30.22R WCI  31
$$

AZZ023-101600-
GREATER PHOENIX AREA

CITY           SKY/WX    TMP DP  RH WIND       PRES   REMARKS
PHOENIX        PTCLDY    49  37  63 NE5       30.13R
BUCKEYE        CLEAR     41  41 100 NE3       30.15S
GLENDALE       PTCLDY    46  39  76 MISG      30.15R
LUKE AFB       CLEAR     46  39  75 N8        30.14R
DEER VALLEY    CLEAR     49  36  61 N5        30.13R
SCOTTSDALE     CLEAR     48  38  68 CALM      30.15R
MESA-FALCON    CLEAR    N/A N/A N/A NE9       30.12R
MESA-GATEWAY   CLEAR     45  34  65 E6        30.15R
CHANDLER       CLEAR     43  36  75 N6        30.15R
$$

AZZ027-028-101600-
SOUTHWEST MARICOPA COUNTY AND PINAL COUNTY

CITY           SKY/WX    TMP DP  RH WIND       PRES   REMARKS
CASA GRANDE    NOT AVBL
GILA BEND      FAIR      46  35  65 CALM      30.13R
$$

AZZ503-504-507>509-101600-
SOUTHEAST ARIZONA

CITY           SKY/WX    TMP DP  RH WIND       PRES   REMARKS
TUCSON         CLEAR     42  30  62 S6        30.16S
DAVIS-MONTHAN  CLEAR     46  31  56 SE6       30.15S
RYAN FIELD     CLEAR     37  32  81 E5        30.17R WCI  34
NOGALES        CLEAR     40  28  62 CALM      30.18R
SIERRA VISTA   CLEAR     43  30  60 W5        30.22R
DOUGLAS        PTCLDY    34  29  82 SE3       30.22S
SAFFORD        CLEAR     43  31  62 SE10      30.21F
$$

AZZ020-021-025-026-031-101600-
SOUTHWEST ARIZONA

CITY           SKY/WX    TMP DP  RH WIND       PRES   REMARKS
YUMA           CLEAR     51  25  36 NE7       30.11S
$$

CAZ031-033-041-043-047-048-061-101600-
SOUTHERN CALIFORNIA

CITY           SKY/WX    TMP DP  RH WIND       PRES   REMARKS
DOWNTOWN L.A.  CLOUDY    54  53  97 CALM      30.17R FOG
L.A. AIRPORT   MOCLDY    54  53  97 E6        30.18R FOG
SAN DIEGO      CLOUDY    57  52  83 E3        30.18S FOG
BURBANK        FOG       49  49 100 N3        30.16R VSB 1/4
ONTARIO        CLOUDY    48  46  93 N5        30.17R FOG
RIVERSIDE      MOCLDY    45  43  93 CALM      30.17R FOG
PALM SPRINGS   CLEAR     50  43  77 NW5       30.12S
EL CENTRO NAS  PTCLDY    46  29  51 SW6       30.13S
IMPERIAL       CLEAR     45  31  58 CALM      30.11F
BLYTHE         CLEAR     43  18  36 CALM      30.14R
NEEDLES        CLEAR     45  19  35 W3        30.14S
$$

NVZ020-UTZ003-101600-
SOUTHERN NEVADA-UTAH

CITY           SKY/WX    TMP DP  RH WIND       PRES   REMARKS
LAS VEGAS      MOCLDY    42  19  39 CALM      30.13S
SALT LAKE CITY LGT RAIN  41  37  86 E3        29.96F
$$

NMZ009-TXZ055-101600-
NEW MEXICO-WEST TEXAS

CITY           SKY/WX    TMP DP  RH WIND       PRES   REMARKS
ALBUQUERQUE    CLOUDY    29  24  82 SE3       30.26S
EL PASO        MOSUNNY   35  26  69 N5        30.27S WCI  31
$$


........................KEY........................
SKY/WX - SKY CONDITION/WEATHER
TMP    - TEMPERATURE IN FAHRENHEIT
DP     - DEW POINT IN FAHRENHEIT
RH     - RELATIVE HUMIDITY IN PERCENT
WIND   - DIRECTION AND SPEED IN MILES PER HOUR (MPH)
VRB    - VARIABLE WIND DIRECTION
PRES   - MEAN SEA LEVEL PRESSURE IN INCHES OF MERCURY
         F - FALLING PRESSURE   R - RISING PRESSURE
         S - STEADY PRESSURE
VSB    - VISIBILITY IN MILES
HX     - HEAT INDEX IN FAHRENHEIT
WCI    - WIND CHILL INDEX IN FAHRENHEIT
TC     - TEMPERATURE IN CELSIUS WHICH IS ALSO KNOWN AS
         TEMPERATURE IN CENTIGRADE
AFB    - AIR FORCE BASE
         LUKE AFB IS LUKE AIR FORCE BASE
         DAVIS-MONTHAN IS DAVIS-MONTHAN AIR FORCE BASE
NAS    - NAVAL AIR STATION
         EL CENTRO NAS IS EL CENTRO NAVAL AIR STATION
N/A    - NOT AVAILABLE





USA.gov is the U.S. government's official web portal to all federal, state and local government web resources and services.